FREGAT DEB, 45835

Orbit data source: Space-Track

FREGAT DEB, 45835 is space debris in LEO originally from a launch on Mon, 18 Jul 2011 UTC launched from the Tyuratam Missile And Space Complex (TTMTR). Debris objects in space refer to the collection of defunct objects orbiting the Earth. Examples of debris include non-operational satellites, rocket bodies, and fragments generated from explosions, collisions, or faulty payload assembly.

Loading next visibility...
Identifier
45835, 2011-037BV
Orbit
LEO
Country
Flag of CISCIS
Related business
Manufacturer
Lavochkin
Mission
Spacecraft
Bus & Motor
Unknown
Mass
Unknown
Launch date (UTC)
2011-07-18 (14 years ago)
Launch vehicle
Unknown
Launch site
Tyuratam Missile And Space Complex (TTMTR)
Object type
Payload
Rocket body
Debris
Shape & HBR
Unknown shape, 0.1 m
Radar Cross Section
Small (<0.1 m²)

Expand to show TLE details & history
Last TLE update: 6 hours ago

TLE from 6 hours ago
0 FREGAT DEB
1 45835U 11037BV  25292.24199844  .00054153  00000-0  10002-1 0  9990
2 45835  51.4313 282.1890 1659325 328.3361  22.7269 11.78799561224764
Epoch: 2025-10-19T05:48Z
TLE epoch observation values (Epoch: 2025-10-19T05:48:28.665Z)
Latitude
-0.00008°
Longitude
167.10802°
Altitude
572.75 km
Speed
8.115 km/s
True Right ascension
18h 48m 45s
True Declination
0° 00' 00"
Sunlit
Object was in daylight at epoch
Visualization orbit readout
Latitude
Unknown
Longitude
Unknown
Altitude
Unknown
Speed
Unknown
Apparent Right ascension
Unknown
Apparent Declination
Unknown
Sunlit
N/A
Visualization observer readout
Local Sidereal Time
06:30:33
Azimuth
Unknown
Elevation
Unknown
Doppler factor
Unknown
Orbital elements
Apogee altitude
3,130.985 km
Perigee altitude
424.358 km
Semi-major axis
8,155.809 km
Eccentricity
0.16593
Inclination
51.4313°
RAAN
282.189°
Arg. of periapsis
328.3361°
True anomaly
31.75177°
Mean anomaly
22.7269°
Eccentric anomaly
27.05057°
Mean motion
2.94675 °/min
Orbital period
122.17 mins
BSTAR
0.010002
Loading maneuver chart data...
Computing Atmospheric mass density...
Loading historical data...
Loading historical data...
Loading historical data...
Loading historical data...
Loading historical data...
Loading historical data...
Loading historical data...

Documentation

Showing up to 5 results
|